Content
SEND FEEDBACK

Daily
Averages
Monthly
Summary
United States of America

FARMINGDALE, SOUTH DAKOTA


Home > North America > United States > South Dakota
Elevation: 2990 feet     Latitude: 43 59N     Longitude: 102 54W

WEATHER
 
SELECT A DAY
Number of Records: 200,504;   Date Range: 1/1/95 - 9/16/14
 
SHARE

PRINT THIS DATA

[ ← Previous Day ]
WEATHER ALMANAC - MAY 13, 2014
[ Next Day → ]
[ °C ]   °F
Weather ElementAverageHighLow
Temperature45.9 °F59 °F (3:52 pm)30 °F (3:52 am)
Dewpoint26 °F28.9 °F (11:52 am)23 °F (3:52 am)
Humidity49.3 %75 % (3:52 am)26 % (4:52 pm)
Barometer30.33 in30.35 in (10:52 am)30.27 in (2:52 am)
Wind Speed15.3 mph27.6 mph (1:52 pm)
Wind Gust38 mph (1:52 pm)
Weather ElementAverage
Visibility10 mi
Wind DirectionNW (314.1 °)

Weather ElementTotal
Precipitation---
Heating Degree Days20.5 (Base 65)
Averaged from 22 records on May 13, 2014
WEATHER CONDITIONS BREAKOUT
WIND DIRECTION BREAKOUT
WEATHER BY HOUR - MAY 13, 2014
[ °C ]   °F
Local TimeTemperatureDewpointHumidityBarometerVisibilityWind DirectionWind SpeedGust SpeedPrecipitationEventsConditions
1:52 AM33.1 °F25.0 °F72 %30.33 in10.0 miWNW (300°)9.2 mphClear
2:52 AM33.8 °F24.8 °F70 %30.27 in10.0 miWest (280°)6.9 mphClear
3:52 AM30.0 °F23.0 °F75 %30.33 in10.0 miWNW (300°)8.1 mphClear
4:52 AM32.0 °F24.1 °F73 %30.31 in10.0 miWNW (300°)11.5 mphClear
5:52 AM32.0 °F24.8 °F75 %30.27 in10.0 miWNW (300°)10.4 mphOvercast
6:52 AM39.2 °F26.6 °F61 %30.29 in10.0 miWNW (300°)8.1 mphScattered Clouds
7:52 AM48.0 °F27.0 °F44 %30.32 in10.0 miNNW (330°)11.5 mphClear
9:52 AM51.8 °F26.6 °F38 %30.30 in10.0 miNNW (330°)24.2 mphMostly Cloudy
10:52 AM53.1 °F27.0 °F37 %30.35 in10.0 miNNW (330°)20.7 mph27.6 mphMostly Cloudy
11:52 AM55.0 °F28.9 °F37 %30.35 in10.0 miNorth (350°)25.3 mph33.4 mphScattered Clouds
12:52 PM57.0 °F28.9 °F34 %30.35 in10.0 miNNW (340°)23.0 mph29.9 mphPartly Cloudy
1:52 PM55.0 °F28.0 °F35 %30.35 in10.0 miNW (320°)27.6 mph38.0 mphMostly Cloudy
2:52 PM57.9 °F27.0 °F31 %30.33 in10.0 miNNW (330°)26.5 mph31.1 mphMostly Cloudy
3:52 PM59.0 °F25.0 °F27 %30.33 in10.0 miNorth (350°)24.2 mph33.4 mphScattered Clouds
4:52 PM59.0 °F24.1 °F26 %30.32 in10.0 miNW (320°)21.9 mph26.5 mphScattered Clouds
5:52 PM55.0 °F25.0 °F31 %30.33 in10.0 miNNW (340°)21.9 mph29.9 mphScattered Clouds
6:52 PM54.0 °F23.0 °F30 %30.32 in10.0 miNNW (330°)21.9 mph27.6 mphClear
7:52 PM48.0 °F27.0 °F44 %30.32 in10.0 miNNW (330°)10.4 mphClear
8:52 PM39.9 °F28.0 °F63 %30.34 in10.0 miNW (320°)8.1 mphClear
9:52 PM39.0 °F27.0 °F62 %30.35 in10.0 miWest (280°)4.6 mphClear
10:52 PM41.0 °F26.1 °F55 %30.35 in10.0 miWest (260°)5.8 mphClear
11:52 PM37.0 °F26.1 °F65 %30.35 in10.0 miWest (270°)4.6 mphClear
Hourly data recorded from KRAP, located miles away from Farmingdale, South Dakota







STORIES FROM OUR PARTNERS